Regional Weather Roundup
Issued by NWS Cleveland, OH

Home | Current Version | Previous Version | Graphics & Text | Print | Product List | Glossary On
Versions: 1 2 3 4 5 6 7 8 9 10 11 12 13 14 15 16 17 18 19 20 21 22 23 24 25 26 27 28 29 30 31 32 33 34 35 36 37 38 39 40 41 42 43 44 45 46 47 48 49 50
000
ASUS41 KCLE 210210
RWRCLE
OHIO REGIONAL WEATHER ROUNDUP
NATIONAL WEATHER SERVICE WILMINGTON, OH
1000 PM EDT FRI OCT 20 2017

NOTE: "FAIR" INDICATES FEW OR NO CLOUDS BELOW 12,000 FEET WITH NO
SIGNIFICANT WEATHER AND/OR OBSTRUCTIONS TO VISIBILITY.

OHZ001>008-015>018-024>027-034-035-043-044-210300-
   NORTHWEST OHIO

CITY           SKY/WX    TMP DP  RH WIND       PRES   REMARKS
DEFIANCE       FAIR      64  50  60 S7        30.15F
FINDLAY        FAIR      58  45  62 S8        30.17S
TOLEDO EXPRESS FAIR      63  50  62 S7        30.16R
TOLEDO EXEC    FAIR      59  46  62 S8        30.17S
LIMA           FAIR      58  50  75 S6        30.18S
$$

OHZ009>014-019>023-028>033-038-089-210300-
   NORTHEAST OHIO

CITY           SKY/WX    TMP DP  RH WIND       PRES   REMARKS
CLE-HOPKINS    MOCLDY    56  39  53 S7        30.22R
CLE-LAKEFRONT  FAIR      64  40  41 S9        30.18S
CUY CO. ARPT   CLEAR     63  41  45 S5        30.21R
LORAIN-ELYRIA  FAIR      54  38  54 SW5       30.21R
ASHTABULA      FAIR      55  38  52 S6        30.22S
AKRON-CANTON   FAIR      58  40  51 S5        30.23R
WOOSTER        FAIR      42  41  96 CALM      30.23S
MANSFIELD      FAIR      58  42  55 S9        30.22S
YOUNGSTOWN     FAIR      58  38  47 S7        30.23R
$$

OHZ042-051>053-060>062-070>072-077>081-210300-
  SOUTHWEST OHIO

CITY           SKY/WX    TMP DP  RH WIND       PRES   REMARKS
CINC-COVINGTON FAIR      61  53  75 S6        30.19F
CINC-LUNKEN    FAIR      55  54  96 CALM      30.21R
HAMILTON       FAIR      51  49  92 CALM      30.20S
DAYTON         FAIR      63  54  72 S5        30.21R
WRIGHT-PAT AFB FAIR      55  55  99 CALM      30.20R
DAYTON GENERAL FAIR      62  52  69 S3        30.20R
WILMINGTON     FAIR      58  51  78 SE6       30.21S
$$

OHZ036-037-039>041-045>050-054>059-063>069-073>076-082>088-210300-
  CENTRAL AND SOUTHEAST OHIO

CITY           SKY/WX    TMP DP  RH WIND       PRES   REMARKS
COLUMBUS       FAIR      56  46  69 SE6       30.21S
OSU AIRPORT    FAIR      57  44  62 SE7       30.21S
BOLTON FIELD   FAIR      56  44  64 SE3       30.21F
RICKENBACK AFB FAIR      53  44  69 SE5       30.21S
NEWARK         FAIR      49  44  83 CALM      30.22S
MARION         FAIR      57  40  52 S9        30.21S
LANCASTER      FAIR      46  44  93 CALM      30.23S
ZANESVILLE     FAIR      53  44  71 CALM      30.24R
NEW PHILLY     FAIR      50  44  80 CALM      30.24S
$$




USA.gov is the U.S. government's official web portal to all federal, state and local government web resources and services.